Regional Weather Roundup
Issued by NWS

Home | Current Version | Previous Version | Graphics & Text | Print | Product List | Glossary On
Versions: 1 2 3 4 5 6 7 8 9 10 11 12 13 14 15 16 17 18 19 20 21 22 23 24 25 26 27 28 29 30 31 32 33 34 35 36 37 38 39 40 41 42 43 44 45 46 47 48 49 50
406
ASUS44 KJAN 191910
RWRMS

MISSISSIPPI HOURLY WEATHER ROUNDUP
NATIONAL WEATHER SERVICE JACKSON MS
200 PM CDT FRI SEP 19 2014

NOTE: "FAIR: INDICATES FEW OR NO CLOUDS BELOW 12,000 FEET WITH NO
SIGNIFICANT WEATHER AND/OR OBSTRUCTIONS TO VISIBILITY.

MSZ001>002-007>008-010>013-018>021-025>028-034>036-192000-
NORTHWEST MISSISSIPPI

CITY           SKY/WX    TMP DP  RH WIND       PRES   REMARKS
CLARKSDALE     FAIR      84  68  58 SE6       30.02F
CLEVELAND      FAIR      85  69  58 E6        30.00F
GREENWOOD      MOSUNNY   88  66  48 VRB3      29.99F HX  90
GREENVILLE     MOSUNNY   88  67  49 S7        29.99F HX  91
GRENADA        FAIR      86  64  48 NE6       30.01F
OXFORD         FAIR      81  66  61 SE6       30.04F
TUNICA         PTCLDY    82  66  57 SE5       30.02F
$$

MSZ003>006-009-014>017-022>024-029>033-037>039-192000-
NORTHEAST MISSISSIPPI

CITY           SKY/WX    TMP DP  RH WIND       PRES   REMARKS
COLUMBUS AFB   SUNNY     86  66  50 CALM      30.00F
CORINTH        FAIR      82  64  54 CALM      30.02F
GOLDN TRIANGLE MOSUNNY   88  64  45 S7        30.01F
STARKVILLE     FAIR      84  63  48 E7        30.01S
TUPELO         MOSUNNY   86  65  49 CALM      30.02F
$$

MSZ040-058-192000-
CENTRAL MISSISSIPPI

CITY           SKY/WX    TMP DP  RH WIND       PRES   REMARKS
JACKSON INTL   MOSUNNY   89  68  49 S6        29.98F HX  93
JACKSON HAWKNS MOSUNNY   89  67  47 VRB3      29.99F HX  92
MERIDIAN KEY   MOSUNNY   88  61  40 VRB5      29.98F
MERIDIAN NAS   MOSUNNY   89  61  38 NW3       29.99F
RAYMOND        FAIR      90  84  84 CALM      29.98F HX 115
VICKSBURG      MOSUNNY   87  67  51 NE5       29.98F HX  90
$$

MSZ059>079-192000-
SOUTH MISSISSIPPI

CITY           SKY/WX    TMP DP  RH WIND       PRES   REMARKS
BROOKHAVEN     MOCLDY    88  68  51 SE5       30.00F HX  91
COLUMBIA       FAIR      86  70  58 VRB5      29.96F HX  90
HATTIESBURG    SUNNY     88  68  51 SE8       29.97F HX  91
MCCOMB         MOSUNNY   85  67  54 CALM      29.97F
NATCHEZ        MOSUNNY   84  72  65 SE6       29.99F
PINE BELT      MOSUNNY  N/A N/A N/A NE7       29.99F
$$

MSZ080>082-192000-
COASTAL MISSISSIPPI

CITY           SKY/WX    TMP DP  RH WIND       PRES   REMARKS
BAY ST LOUIS   MOSUNNY   86  64  48 SE12G17   29.96F
BILOXI         MOSUNNY   89  67  48 SE10      29.96F HX  91
PASCAGOULA     MOSUNNY   86  63  45 E10       29.96F
GULFPORT       MOSUNNY   86  66  51 SE15G25   29.95F
$$



USA.gov is the U.S. government's official web portal to all federal, state and local government web resources and services.